Location: Pinon Hills
(34.4429°N, 117.6403°W)
Time: 05:28:57
(UTC-07:00)

Daily predictions for brighter satellites

Satellite Brightness Start Highest point End
(mag) Time Altitude Azimuth Time Altitude Azimuth Time Altitude Azimuth
Terra 4.4 00:10:07 13° WNW 00:10:07 13° WNW 00:11:08 10° WNW
Lacrosse 5 4.1 00:35:50 21° NW 00:35:50 21° NW 00:39:38 10° NNE
ATLAS 3B CENTAUR R/B 4.3 00:47:42 58° SE 00:47:42 58° SE 01:11:13 10° E
Cosmos 2369 Rocket 4.2 01:05:44 20° NW 01:05:44 20° NW 01:09:21 10° N
CZ-2C R/B 4.2 01:12:11 10° N 01:14:55 31° N 01:14:55 31° N
ATLAS 2AS CENTAUR R/B 3.2 01:26:48 10° NNW 01:33:31 65° NW 01:33:31 65° NW
Cosmos 1943 Rocket 4.0 01:41:39 23° NW 01:41:39 23° NW 01:44:57 10° N
CZ-3B DEB 4.4 01:48:56 10° NW 02:16:42 54° WSW 02:18:30 52° SW
SeaSat 1 3.9 02:20:46 31° NNW 02:20:46 31° NNW 02:23:20 10° NNW
Cosmos 2034 Rocket 4.4 02:34:50 54° E 02:34:55 54° E 02:40:56 10° NNE
CZ-2D R/B 4.0 02:35:36 10° NE 02:39:40 21° E 02:40:29 21° ESE
SL-16 R/B 4.1 02:41:26 13° ESE 02:46:01 29° ENE 02:51:13 10° N
Cosmos 1898 Rocket 4.0 02:42:59 10° N 02:47:47 59° NE 02:47:47 59° NE
Cosmos 1697 Rocket 3.2 02:50:22 52° E 02:50:22 52° E 02:55:32 10° NNE
Cosmos 841 Rocket 4.5 02:51:37 39° E 02:51:37 39° E 02:56:16 10° NNE
Cosmos 1763 Rocket 4.1 02:57:36 51° E 02:57:36 51° E 03:02:16 10° NNE
Cosmos 2082 3.8 02:51:46 10° NNW 02:56:38 67° NNW 02:56:38 67° NNW
Cosmos 1980 Rocket 3.2 02:58:11 35° ESE 02:58:38 36° ESE 03:03:43 10° NE
Cosmos 1937 Rocket 4.0 02:54:22 10° N 02:59:27 54° ENE 02:59:50 52° E
Geosat 4.3 02:54:36 10° NNE 02:58:50 62° N 02:58:50 62° N
ATLAS CENTAUR R/B 2.5 03:00:50 51° N 03:00:50 51° N 03:04:50 10° NNE
Cosmos 2227 Rocket 2.5 03:01:56 10° NNW 03:06:27 55° NW 03:06:27 55° NW
Cosmos 2322 Rocket 4.4 03:08:13 12° SE 03:10:50 16° E 03:14:05 10° ENE
ARIANE 5 R/B 2.7 03:09:55 10° NNE 03:15:02 64° ESE 03:15:18 63° ESE
ISS -0.5 03:14:23 17° N 03:15:21 19° NNE 03:17:46 10° E
Meteor 2-5 Rocket 3.8 03:12:10 10° NNW 03:17:44 63° W 03:17:44 63° W
Resurs 1-4 Rocket 2.6 03:13:45 10° NNE 03:18:52 52° E 03:19:45 46° SE
Cosmos 1464 Rocket 4.4 03:19:00 46° WNW 03:19:00 46° WNW 03:24:59 10° N
ADEOS 3.6 03:13:45 10° N 03:18:43 69° NW 03:18:43 69° NW
Okean 3 Rocket 4.4 03:15:14 10° N 03:18:16 43° NNW 03:18:16 43° NNW
ERS-1 4.4 03:14:34 10° NNE 03:19:27 83° NNW 03:19:27 83° NNW
OAO 1 4.4 03:21:00 80° NW 03:21:16 84° N 03:26:45 10° E
Meteor 2-12 Rocket 4.3 03:23:20 67° S 03:24:15 88° W 03:30:20 10° N
Cosmos 2297 Rocket 2.1 03:23:16 10° NNW 03:28:45 67° W 03:28:45 67° W
Cosmos 1378 3.9 03:28:28 10° N 03:31:33 51° NNE 03:31:33 51° NNE
Cosmos 1766 4.0 03:33:18 47° NNW 03:33:18 47° NNW 03:36:14 10° N
Spot 4 Rocket 4.1 03:28:13 10° N 03:33:17 57° WNW 03:33:21 57° WNW
Cosmos 1092 Rocket 4.2 03:31:33 10° N 03:37:51 72° E 03:41:40 25° SSE
Cosmos 2360 4.5 03:40:39 42° SSE 03:42:26 62° ESE 03:48:04 10° NNE
IRS-1D 3.3 03:38:21 10° N 03:43:18 72° WNW 03:43:53 64° WSW
Cosmos 1076 Rocket 3.3 03:39:24 10° N 03:43:43 89° ENE 03:43:49 85° SSE
SL-16 R/B 3.7 03:40:48 18° SSE 03:44:00 30° ESE 03:48:54 10° NE
ERS-2 4.1 03:41:40 10° NNW 03:43:28 21° NW 03:43:28 21° NW
GPS 2-04 Rocket1 2.8 03:46:09 72° NNE 03:46:09 72° NNE 03:49:57 10° E
UNKNOWN OBJECT B 2.7 03:46:48 10° NNE 03:50:40 72° E 03:50:52 70° SE
Milstar 3 Cent rocket 2.5 03:53:53 45° SSW 03:54:42 49° S 04:02:05 10° ESE
Cosmos 1743 Rocket 4.4 03:50:45 10° N 03:54:57 47° E 03:58:07 17° SSE
Cosmos 1758 3.1 03:58:13 74° SW 03:58:30 80° W 04:02:31 10° N
EO 1 Del DPAF 3.1 03:58:07 70° S 03:58:31 86° WSW 04:02:24 10° NNW
Meteor 1-24 Rocket 4.1 03:54:06 10° NNW 03:59:37 48° W 04:00:52 41° SW
SL-24 R/B - RUBIN 2 4.5 03:59:35 34° S 04:01:59 65° ESE 04:08:09 10° NE
Cosmos 1441 Rocket 3.3 03:58:21 10° NNW 04:02:10 59° W 04:02:10 59° W
Cosmos 1805 3.1 04:02:32 70° SW 04:02:52 77° W 04:06:47 10° N
Cosmos 1953 2.2 04:02:41 64° WSW 04:02:58 67° W 04:07:02 10° N
Cosmos 990 Rocket 4.2 03:58:06 10° NNW 04:03:10 50° WSW 04:04:07 44° SW
Okean O Rocket 2.3 03:59:21 10° NNE 04:03:38 50° E 04:06:01 24° SSE
Cosmos 2142 Rocket 4.4 04:00:42 33° SSW 04:03:39 81° W 04:09:48 10° N
Cosmos-2242 3.0 04:06:47 53° WSW 04:07:24 59° W 04:11:39 10° N
CZ-4B R/B 4.0 04:04:04 10° NNE 04:09:23 49° E 04:13:57 13° S
USA 81 4.2 04:06:55 22° S 04:10:21 76° E 04:15:38 10° N
Cosmos 2279 Rocket 4.1 04:10:03 16° S 04:15:08 76° E 04:21:23 10° N
Cosmos 1408 Rocket 4.1 04:12:12 10° NNW 04:16:18 38° W 04:16:37 38° WSW
ASTRO E2 4.0 04:19:04 25° S 04:19:04 25° S 04:21:32 10° SE
Cosmos 2227 4.4 04:12:40 10° NNW 04:18:27 78° ENE 04:24:11 10° SSE
Cosmos 783 Rocket 4.5 04:16:45 31° SSW 04:19:20 79° WNW 04:24:40 10° NNE
Cosmos 1544 2.9 04:18:23 46° SSW 04:19:24 81° W 04:23:04 10° N
CZ-2D R/B 2.7 04:14:46 10° N 04:19:51 41° WNW 04:21:48 30° WSW
Cosmos 1766 Rocket 4.1 04:15:53 10° NNW 04:19:59 38° W 04:20:35 36° WSW
MOZ.5/SAFIR/RUBIN 5/SL-8 4.4 04:17:07 10° SSE 04:21:44 57° ENE 04:26:20 10° N
MTI 3.8 04:22:48 54° SW 04:23:12 59° W 04:26:28 10° NNW
DELTA 2 R/B (1) 4.0 04:21:25 29° SSW 04:23:55 51° SSE 04:29:20 10° ENE
IRS-1C Rocket 4.0 04:21:09 10° N 04:26:26 83° WNW 04:30:02 21° SSW
ADEOS II 4.1 04:23:33 10° NE 04:27:56 26° E 04:32:16 10° SSE
Cosmos 1437 2.8 04:26:00 10° NNW 04:29:18 60° W 04:30:20 38° SSW
SL-16 R/B 3.0 04:26:32 24° SSW 04:29:26 37° W 04:35:06 10° NNW
Cosmos 1697 Rocket 4.3 04:32:06 16° W 04:34:17 19° WNW 04:38:19 10° NNW
In-Cosmos 22 4.3 04:29:23 10° NNW 04:34:27 48° W 04:38:22 17° SSW
Cosmos 1125 Rocket 3.4 04:31:17 10° NNW 04:36:26 62° WSW 04:41:32 10° S
GEOS 3 Rocket 3.6 04:32:45 10° SSE 04:37:53 58° WSW 04:43:00 10° NW
Cosmos 1842 Rocket 3.7 04:35:28 24° SSW 04:37:58 56° W 04:42:22 10° N
Cosmos 332 Rocket 4.1 04:37:02 25° SW 04:39:30 50° WNW 04:44:12 10° N
Meteor 1-21 Rocket 4.4 04:34:31 10° NNW 04:40:19 57° W 04:46:04 10° S
Cosmos 1655 Rocket 4.0 04:35:11 10° NNW 04:41:32 68° W 04:47:51 10° S
Cosmos 1674 2.6 04:38:17 10° N 04:42:04 89° E 04:45:48 10° S
RESURS DK-1 2.7 04:38:18 10° NNW 04:42:26 68° ENE 04:46:31 10° SSE
Cosmos 1980 Rocket 3.4 04:39:58 19° W 04:42:38 27° WNW 04:47:23 10° N
Cosmos 2360 Rocket 3.5 04:38:02 10° S 04:43:07 37° ESE 04:48:15 10° NE
ADEOS Rocket 4.4 04:38:06 10° NNE 04:44:30 45° E 04:51:28 10° S
Aureole 1 Rocket 4.1 04:42:42 19° SW 04:46:50 62° WNW 04:54:05 10° NNE
Okean-O 3.4 04:44:41 10° NNE 04:49:00 51° E 04:53:18 10° S
CZ-4B DEB 4.2 04:44:51 10° N 04:50:24 76° WNW 04:55:53 10° SSW
ISS -2.9 04:48:50 10° WNW 04:51:52 37° SW 04:54:53 10° SSE
ARIANE 5 R/B 4.5 04:51:08 10° NW 04:53:34 14° WNW 04:55:38 11° W
Cosmos 2322 Rocket 2.4 04:50:04 17° SW 04:54:18 56° WNW 04:59:50 10° NNE
Cosmos 1461 2.7 04:52:46 10° NNW 04:56:52 83° WSW 05:00:46 10° SSE
Resurs 1-4 Rocket 3.8 04:54:58 10° NNW 04:58:14 17° WNW 05:00:50 12° W
Cosmos 371 Rocket 3.6 04:55:37 16° SW 04:59:11 47° WNW 05:03:50 10° N
Cosmos 1470 3.4 04:57:07 17° SW 04:59:41 37° W 05:03:23 10° NNW
Cosmos 2026 Rocket 4.5 04:57:56 10° NNW 05:03:44 40° W 05:09:27 10° SSW
CZ-3 R/B 3.3 04:40:29 14° WSW 05:05:23 59° S 05:12:14 10° E
Thor Agena Rocket 3.6 05:10:14 10° S 05:15:08 53° W 05:20:04 10° NNW
USA 116 3.6 05:13:20 10° SSE 05:16:26 69° ENE 05:19:46 10° N
CZ-4B R/B 3.8 05:13:24 10° N 05:16:46 29° WNW 05:20:01 10° SW
Cosmos 2151 3.1 05:14:34 10° NNW 05:18:46 54° W 05:22:57 10° S
Meteor 2-20 4.5 05:15:27 10° NNW 05:21:25 61° W 05:27:25 10° S
Cosmos 1346 3.5 05:21:10 10° N 05:24:11 67° E 05:27:11 10° SSE
GPS 2-04 Rocket1 2.6 05:22:05 10° W 05:26:00 67° SSW 05:29:42 10° ESE
Abrixas 2.6 05:24:48 10° WNW 05:27:48 53° SW 05:30:47 10° SE
SL-16 R/B 3.2 05:23:00 10° WSW 05:27:59 31° WNW 05:33:00 10° N
Elektron 1 4.5 05:25:39 10° SSW 05:28:31 59° ESE 05:32:30 10° NE
CSL-04 DEB 4.5 05:25:54 10° N 05:29:45 57° WNW 05:33:38 10° SSW
Cosmos 923 Rocket 4.0 05:26:55 10° SSW 05:32:08 86° WNW 05:37:22 10° NNE
Meteor 1-31 Rocket 3.0 05:30:33 10° NNE 05:34:27 75° ESE 05:38:17 10° S
Cosmos 2228 Rocket 3.4 05:31:02 10° S 05:35:28 73° E 05:39:59 10° N
COSMOS 2428 3.7 05:30:09 10° S 05:35:34 49° ESE 05:41:01 10° NNE
